Regional Weather Roundup
Issued by NWS

Home | Current Version | Previous Version | Text Only | Print | Product List | Glossary On
Versions: 1 2 3 4 5 6 7 8 9 10 11 12 13 14 15 16 17 18 19 20 21 22 23 24 25 26 27 28 29 30 31 32 33 34 35 36 37 38 39 40 41 42 43 44 45 46 47 48 49 50
000
ASUS45 KBOI 311510
RWRID

IDAHO REGIONAL WEATHER ROUNDUP
NATIONAL WEATHER SERVICE BOISE ID
900 AM MDT FRI JUL 31 2015

NOTE: "FAIR" INDICATES FEW OR NO CLOUDS BELOW 12000 FEET
WITH NO SIGNIFICANT WEATHER AND/OR OBSTRUCTIONS TO VISIBILITY

IDZ012-014-311600-
SOUTHWEST IDAHO


CITY           SKY/WX    TMP DP  RH WIND       PRES   REMARKS
BOISE          SUNNY     72  40  31 SE5       30.19R
CALDWELL       SUNNY     64  43  45 E3        30.18S
MOUNTAIN HOME  SUNNY     69  38  31 E9        30.20R
$$

IDZ016-017-311600-
SOUTHCENTRAL IDAHO


CITY           SKY/WX    TMP DP  RH WIND       PRES   REMARKS
BURLEY         SUNNY     64  43  46 E3        30.27R
JEROME         SUNNY     68  42  38 VRB3      30.27R
TWIN FALLS     SUNNY     78  29  16 S6        30.24R
$$

IDZ019>023-311600-
SOUTHEAST IDAHO


CITY           SKY/WX    TMP DP  RH WIND       PRES   REMARKS
IDAHO FALLS    SUNNY     61  47  59 N7        30.32S
POCATELLO      SUNNY     63  41  44 NW3       30.31R
REXBURG        SUNNY     57  44  62 NE5       30.34R
$$

IDZ006-010-011-018-031-032-311600-
CENTRAL IDAHO MOUNTAINS


CITY           SKY/WX    TMP DP  RH WIND       PRES   REMARKS
MCCALL         SUNNY     61  45  55 CALM      30.32R
HAILEY         MOSUNNY   63  36  36 NW12      30.37S
STANLEY          N/A     52  34  50 CALM      30.48S
SALMON         SUNNY     59  45  58 CALM      30.32S
CHALLIS        SUNNY     61  44  53 NE3       30.38R
$$

IDZ002-004-006-007-026-311600-
NORTHERN IDAHO


CITY           SKY/WX    TMP DP  RH WIND       PRES   REMARKS
LEWISTON       SUNNY     71  42  35 NE6       30.11R
LOWELL           N/A     59  48  67 N5        30.22S
COEUR D`ALENE  SUNNY     70  48  46 NE12      30.14S
MULLAN PASS    SUNNY     69  33  26 S3        30.37R
$$


USA.gov is the U.S. government's official web portal to all federal, state and local government web resources and services.